COSMOS 1136

Satellite information

Favourite Embed

Satellite Type and Status

PAYLOADIN ORBIT

Key statistics

Satellite COSMOS 1136 at a glance.

Uptime

16667

Days in orbit

Revolutions

≈ 12.5

Per day

Orbit

LEO

Low Earth Orbit

Inclination

74.0

Latest

Satellite identification and parameters

Extended collection of information and parameters for COSMOS 1136.

Object identification

Identified? True

Debris? False

Object name: COSMOS 1136

International designator: 1979-084G

Object number (NORAD): 11544

Object ID (CCSDS): 11544

Country: COMMONWEALTH OF INDEPENDENT STATES (CIS)

Current information (Y/N): Y

RCS size: MEDIUM

Orbital parameters

Period: 115.634 minutes

Inclination: 74.0251 deg

SMA: 7862.339 km

Apoapsis: 1496.722 km

Periapsis: 1471.686 km

RAAN: 332.0167 deg

Eccentricy: 0.0015921

Argument of periapsis: 233.6242 deg

Mean anomaly: 138.5971 deg

Mean motion: 12.45303239 rev/day

Mean motion (dot): -0.00000004 rev/day2

B* drag term: 0.000083393 1/REarth

Two-line elements (TLE)

Creation date: May 12, 2025, 2:26 p.m.

Reference frame: TEME

Reference center: EARTH

Epoch: May 12, 2025, 1:41 p.m. UTC

TLE line 0: 0 COSMOS 1136

TLE line 1: 1 11544U 79084G 25132.57018536 -.00000004 00000-0 83393-4 0 9996

TLE line 2: 2 11544 74.0251 332.0167 0015921 233.6242 138.5971 12.45303239 74500

Live tracking on map

Real-time ground track for satellite COSMOS 1136.

In-orbit conjunctions

A list of the most updated potential collisions computed for object COSMOS 1136.

Target Orbit TCA Probability of collision Miss distance Type
DELTA 1 DEB SSO 2025-04-03 17:00:51 0.0001286146 347.0 (m) DEBRIS

Associated space launch

Biological research satellite carrying live organisms

COSMOS 1136 was lifted into orbit during the mission ‘Soyuz U | Bion 5’, on board a Soyuz U space rocket.

The launch took place on Sept. 25, 1979, 3:30 p.m. from 41/1.

For more information about the launch, click the button.

Launch to space Soyuz U | Bion 5
Soyuz U | Bion 5

Agency: N/A

Status: Launch Successful

Launch date: Sept. 25, 1979, 3:30 p.m. UTC

Rocket: Soyuz U

Launch pad: 41/1

Location: Plesetsk Cosmodrome, Russian Federation

...

Latest news about this satellite

There are no fresh news available about this satellite. Check back as we update our databases every day.


Newsletter sign-up

Weekly statistics, charts and insights to help you stay on top of the space industry.